TimeCDT,TemperatureF,Dew PointF,Humidity,Sea Level PressureIn,VisibilityMPH,Wind Direction,Wind SpeedMPH,Gust SpeedMPH,PrecipitationIn,Events,Conditions,WindDirDegrees,DateUTC
12:15 AM,53.6,53.6,100,30.08,0.2,Calm,Calm,-,N/A,Fog,Fog,0,2013-08-03 05:15:00
12:35 AM,53.6,53.6,100,30.08,0.2,Calm,Calm,-,N/A,Fog,Fog,0,2013-08-03 05:35:00
12:55 AM,53.6,53.6,100,30.08,0.2,Calm,Calm,-,N/A,Fog,Fog,0,2013-08-03 05:55:00
1:15 AM,53.6,53.6,100,30.09,0.5,Calm,Calm,-,N/A,Fog,Fog,0,2013-08-03 06:15:00
1:35 AM,53.6,53.6,100,30.09,3.0,Calm,Calm,-,N/A,,Clear,0,2013-08-03 06:35:00
1:55 AM,53.6,53.6,100,30.09,8.0,Calm,Calm,-,N/A,,Clear,0,2013-08-03 06:55:00
2:15 AM,53.6,53.6,100,30.10,6.0,North,4.6,-,N/A,,Clear,360,2013-08-03 07:15:00
2:35 AM,53.6,53.6,100,30.10,6.0,North,3.5,-,N/A,,Clear,350,2013-08-03 07:35:00
2:55 AM,53.6,53.6,100,30.10,7.0,North,3.5,-,N/A,,Clear,10,2013-08-03 07:55:00
3:15 AM,51.8,51.8,100,30.10,5.0,Calm,Calm,-,N/A,,Clear,0,2013-08-03 08:15:00
3:35 AM,51.8,51.8,100,30.11,7.0,Calm,Calm,-,N/A,,Clear,0,2013-08-03 08:35:00
3:55 AM,51.8,51.8,100,30.10,7.0,North,4.6,-,N/A,,Clear,350,2013-08-03 08:55:00
4:15 AM,51.8,51.8,100,30.11,6.0,Calm,Calm,-,N/A,,Clear,0,2013-08-03 09:15:00
4:35 AM,51.8,51.8,100,30.10,7.0,Calm,Calm,-,N/A,,Clear,0,2013-08-03 09:35:00
4:55 AM,50.0,50.0,100,30.10,9.0,Calm,Calm,-,N/A,,Clear,0,2013-08-03 09:55:00
5:15 AM,50.0,50.0,100,30.11,7.0,Calm,Calm,-,N/A,,Clear,0,2013-08-03 10:15:00
5:35 AM,50.0,50.0,100,30.12,9.0,Calm,Calm,-,N/A,,Clear,0,2013-08-03 10:35:00
5:55 AM,48.2,48.2,100,30.13,8.0,Calm,Calm,-,N/A,,Clear,0,2013-08-03 10:55:00
6:15 AM,48.2,48.2,100,30.14,7.0,Calm,Calm,-,N/A,,Clear,0,2013-08-03 11:15:00
6:35 AM,48.2,48.2,100,30.14,7.0,North,-9999.0,-,N/A,,Clear,0,2013-08-03 11:35:00
6:55 AM,50.0,50.0,100,30.14,7.0,NNW,5.8,-,N/A,,Clear,340,2013-08-03 11:55:00
7:15 AM,53.6,53.6,100,30.15,7.0,North,4.6,-,N/A,,Clear,360,2013-08-03 12:15:00
7:35 AM,55.4,55.4,100,30.15,9.0,North,4.6,-,N/A,,Clear,10,2013-08-03 12:35:00
7:55 AM,57.2,57.2,100,30.17,7.0,Variable,3.5,-,N/A,,Clear,0,2013-08-03 12:55:00
8:15 AM,59.0,59.0,100,30.17,10.0,North,4.6,-,N/A,,Clear,10,2013-08-03 13:15:00
8:35 AM,60.8,60.8,100,30.17,10.0,NE,5.8,-,N/A,,Clear,40,2013-08-03 13:35:00
8:55 AM,62.6,60.8,94,30.17,10.0,NNE,4.6,-,N/A,,Clear,30,2013-08-03 13:55:00
9:15 AM,64.4,60.8,88,30.17,10.0,NE,4.6,-,N/A,,Clear,50,2013-08-03 14:15:00
9:35 AM,66.2,59.0,78,30.18,10.0,NNE,4.6,-,N/A,,Clear,30,2013-08-03 14:35:00
9:55 AM,68.0,59.0,73,30.18,10.0,Variable,3.5,-,N/A,,Clear,0,2013-08-03 14:55:00
10:15 AM,69.8,59.0,68,30.19,10.0,Variable,6.9,-,N/A,,Clear,0,2013-08-03 15:15:00
10:35 AM,69.8,55.4,60,30.19,10.0,NNE,8.1,-,N/A,,Clear,30,2013-08-03 15:35:00
10:55 AM,71.6,57.2,60,30.19,10.0,NNE,6.9,-,N/A,,Clear,20,2013-08-03 15:55:00
11:15 AM,71.6,55.4,57,30.19,10.0,NE,8.1,-,N/A,,Clear,50,2013-08-03 16:15:00
11:35 AM,71.6,55.4,57,30.19,10.0,NE,8.1,-,N/A,,Clear,50,2013-08-03 16:35:00
11:55 AM,71.6,53.6,53,30.19,10.0,NE,6.9,-,N/A,,Clear,40,2013-08-03 16:55:00
12:15 PM,71.6,53.6,53,30.21,10.0,Variable,5.8,-,N/A,,Clear,0,2013-08-03 17:15:00
12:35 PM,71.6,53.6,53,30.19,10.0,Variable,3.5,-,N/A,,Clear,0,2013-08-03 17:35:00
12:55 PM,71.6,53.6,53,30.21,10.0,North,5.8,-,N/A,,Clear,360,2013-08-03 17:55:00
1:15 PM,71.6,53.6,53,30.20,10.0,NE,4.6,-,N/A,,Clear,50,2013-08-03 18:15:00
1:35 PM,71.6,53.6,53,30.20,10.0,NE,4.6,-,N/A,,Clear,40,2013-08-03 18:35:00
1:55 PM,73.4,53.6,50,30.20,10.0,NE,8.1,-,N/A,,Clear,50,2013-08-03 18:55:00
2:15 PM,73.4,53.6,50,30.19,10.0,NE,8.1,-,N/A,,Clear,50,2013-08-03 19:15:00
2:35 PM,71.6,53.6,53,30.19,10.0,NNE,5.8,-,N/A,,Clear,30,2013-08-03 19:35:00
2:55 PM,73.4,53.6,50,30.18,10.0,NE,9.2,-,N/A,,Clear,40,2013-08-03 19:55:00
3:15 PM,73.4,53.6,50,30.19,10.0,ENE,8.1,-,N/A,,Clear,70,2013-08-03 20:15:00
3:35 PM,73.4,53.6,50,30.20,10.0,Variable,3.5,-,N/A,,Clear,0,2013-08-03 20:35:00
3:55 PM,75.2,51.8,44,30.19,10.0,NNE,6.9,13.8,N/A,,Clear,20,2013-08-03 20:55:00
4:15 PM,75.2,51.8,44,30.18,10.0,NNE,6.9,-,N/A,,Clear,30,2013-08-03 21:15:00
4:35 PM,75.2,51.8,44,30.18,10.0,Variable,5.8,11.5,N/A,,Clear,0,2013-08-03 21:35:00
4:55 PM,75.2,53.6,47,30.18,10.0,NE,8.1,-,N/A,,Clear,40,2013-08-03 21:55:00
5:15 PM,75.2,51.8,44,30.17,10.0,NE,8.1,-,N/A,,Clear,40,2013-08-03 22:15:00
5:35 PM,75.2,53.6,47,30.17,10.0,NE,8.1,-,N/A,,Clear,40,2013-08-03 22:35:00
5:55 PM,75.2,51.8,44,30.16,10.0,NNE,9.2,-,N/A,,Clear,30,2013-08-03 22:55:00
6:15 PM,75.2,51.8,44,30.17,10.0,NNE,10.4,-,N/A,,Clear,30,2013-08-03 23:15:00
6:35 PM,-9999,-9999,N/A,30.17,-9999.0,North,-9999.0,-,N/A,,Unknown,0,2013-08-03 23:35:00
6:55 PM,73.4,53.6,50,30.17,10.0,NE,8.1,-,N/A,,Unknown,40,2013-08-03 23:55:00
7:15 PM,73.4,55.4,53,30.17,10.0,NE,5.8,-,N/A,,Clear,40,2013-08-04 00:15:00
7:35 PM,71.6,55.4,57,30.18,10.0,NE,4.6,-,N/A,,Clear,40,2013-08-04 00:35:00
7:55 PM,69.8,57.2,64,30.18,-9999.0,NE,4.6,-,N/A,,Unknown,40,2013-08-04 00:55:00
8:15 PM,68.0,57.2,68,30.18,10.0,NNE,4.6,-,N/A,,Unknown,30,2013-08-04 01:15:00
8:35 PM,66.2,59.0,78,30.18,10.0,NE,3.5,-,N/A,,Clear,40,2013-08-04 01:35:00
8:55 PM,64.4,60.8,88,30.18,10.0,NE,4.6,-,N/A,,Clear,50,2013-08-04 01:55:00
9:15 PM,60.8,60.8,100,30.19,10.0,Calm,Calm,-,N/A,,Clear,0,2013-08-04 02:15:00
9:35 PM,60.8,60.8,100,30.20,10.0,NNE,3.5,-,N/A,,Clear,30,2013-08-04 02:35:00
9:55 PM,57.2,57.2,100,30.20,10.0,Calm,Calm,-,N/A,,Clear,0,2013-08-04 02:55:00
10:15 PM,59.0,59.0,100,30.21,10.0,Calm,Calm,-,N/A,,Clear,0,2013-08-04 03:15:00
10:35 PM,55.4,55.4,100,30.22,10.0,Calm,Calm,-,N/A,,Clear,0,2013-08-04 03:35:00
10:55 PM,55.4,55.4,100,30.22,10.0,Calm,Calm,-,N/A,,Clear,0,2013-08-04 03:55:00
11:15 PM,55.4,55.4,100,30.22,10.0,Calm,Calm,-,N/A,,Clear,0,2013-08-04 04:15:00
11:35 PM,55.4,55.4,100,30.22,10.0,Calm,Calm,-,N/A,,Clear,0,2013-08-04 04:35:00
11:55 PM,53.6,53.6,100,30.23,10.0,Calm,Calm,-,N/A,,Clear,0,2013-08-04 04:55:00